QPF
0.00 0.00 0.00 0.00 0.00 0.00 0.00 0.00 0.00 0.00 0.00 0.00 0.00 0.00 0.00 0.00 0.00 0.00 0.00 0.00 0.00 0.00 0.00 0.00 0.00 0.00 0.00 0.00 0.00 0.00 0.00 0.00 0.00 0.00 0.00 0.00 0.00 0.00 0.00 0.00 0.00 0.00 0.00
0.00 0.00 0.00 0.00 0.00 0.00 0.00 0.00 0.00 0.00 0.00 0.00 0.00 0.00 0.00 0.00 0.00 0.00 0.00 0.00 0.00 0.00 0.00 0.00 0.00 0.00 0.00 0.00 0.00 0.00 0.00 0.00 0.00 0.00 0.00 0.00 0.00 0.00 0.00 0.00 0.00 0.00 0.00
0.00 0.00 0.00 0.00 0.00 0.00 0.00 0.00 0.00 0.00 0.00 0.00 0.00 0.00 0.00 0.00 0.00 0.00 0.00 0.00 0.00 0.00 0.00 0.00 0.00 0.00 0.00 0.00 0.00 0.00 0.00 0.00 0.00 0.00 0.00 0.00 0.00 0.00 0.00 0.01 0.01 0.01 0.01
0.00 0.00 0.00 0.00 0.00 0.00 0.00 0.00 0.00 0.00 0.00 0.00 0.00 0.00 0.00 0.00 0.00 0.00 0.00 0.00 0.00 0.00 0.00 0.00 0.00 0.00 0.00 0.00 0.00 0.00 0.00 0.00 0.00 0.00 0.00 0.00 0.00 0.00 0.00 0.00 0.01 0.00 0.00
0.00 0.00 0.00 0.00 0.00 0.00 0.00 0.00 0.00 0.00 0.00 0.00 0.00 0.00 0.00 0.00 0.00 0.00 0.00 0.00 0.00 0.00 0.00 0.00 0.00 0.00 0.00 0.00 0.00 0.00 0.00 0.00 0.00 0.00 0.00 0.00 0.00 0.00 0.00 0.00 0.00 0.00 0.00
0.00 0.00 0.00 0.00 0.00 0.00 0.00 0.00 0.00 0.00 0.00 0.00 0.00 0.00 0.00 0.00 0.00 0.00 0.00 0.00 0.00 0.00 0.00 0.00 0.00 0.00 0.00 0.00 0.00 0.00 0.00 0.00 0.00 0.00 0.00 0.00 0.00 0.00 0.00 0.00 0.00 0.00 0.00
0.00 0.00 0.00 0.00 0.00 0.00 0.00 0.00 0.00 0.00 0.00 0.00 0.00 0.00 0.00 0.00 0.00 0.00 0.00 0.00 0.00 0.00 0.00 0.00 0.00 0.00 0.00 0.00 0.00 0.00 0.00 0.00 0.00 0.00 0.00 0.00 0.00 0.00 0.00 0.00 0.00 0.00 0.00
0.00 0.00 0.00 0.00 0.00 0.00 0.00 0.00 0.00 0.00 0.00 0.00 0.00 0.00 0.00 0.00 0.00 0.00 0.00 0.00 0.00 0.00 0.00 0.00 0.00 0.00 0.00 0.00 0.00 0.00 0.00 0.00 0.00 0.00 0.00 0.00 0.00 0.00 0.00 0.00 0.00 0.00 0.00
0.00 0.00 0.00 0.00 0.00 0.00 0.00 0.00 0.00 0.00 0.00 0.00 0.00 0.00 0.00 0.00 0.00 0.00 0.00 0.00 0.00 0.00 0.00 0.00 0.00 0.00 0.00 0.00 0.00 0.00 0.00 0.00 0.00 0.00 0.00 0.00 0.00 0.00 0.00 0.00 0.00 0.00 0.00
0.00 0.00 0.00 0.00 0.00 0.00 0.00 0.00 0.00 0.00 0.00 0.00 0.00 0.00 0.00 0.00 0.00 0.00 0.00 0.00 0.00 0.00 0.00 0.00 0.00 0.00 0.00 0.00 0.00 0.00 0.00 0.00 0.00 0.00 0.00 0.00 0.00 0.00 0.00 0.00 0.00 0.00 0.00
0.00 0.00 0.00 0.00 0.00 0.00 0.00 0.00 0.00 0.00 0.00 0.00 0.00 0.00 0.00 0.00 0.00 0.00 0.00 0.00 0.00 0.00 0.00 0.00 0.00 0.00 0.00 0.00 0.00 0.00 0.00 0.00 0.00 0.00 0.00 0.00 0.00 0.00 0.00 0.00 0.00 0.00 0.00
0.00 0.00 0.00 0.00 0.00 0.00 0.00 0.00 0.00 0.00 0.00 0.00 0.00 0.00 0.00 0.00 0.00 0.00 0.00 0.00 0.00 0.00 0.00 0.00 0.00 0.00 0.00 0.00 0.00 0.00 0.00 0.00 0.00 0.00 0.00 0.00 0.00 0.00 0.00 0.00 0.00 0.00 0.00
0.00 0.00 0.00 0.00 0.00 0.00 0.00 0.00 0.00 0.00 0.00 0.00 0.00 0.00 0.00 0.00 0.00 0.00 0.00 0.00 0.00 0.00 0.00 0.00 0.00 0.00 0.00 0.00 0.00 0.00 0.00 0.00 0.00 0.00 0.00 0.00 0.00 0.00 0.00 0.00 0.00 0.00 0.00
0.00 0.00 0.00 0.00 0.00 0.00 0.00 0.00 0.00 0.00 0.00 0.00 0.00 0.00 0.00 0.00 0.00 0.00 0.00 0.00 0.00 0.00 0.00 0.00 0.00 0.00 0.00 0.00 0.00 0.00 0.00 0.00 0.00 0.00 0.00 0.00 0.00 0.00 0.00 0.00 0.00 0.00 0.00
0.00 0.00 0.00 0.00 0.00 0.00 0.00 0.00 0.00 0.00 0.00 0.00 0.00 0.00 0.00 0.00 0.00 0.00 0.00 0.00 0.00 0.00 0.00 0.00 0.00 0.00 0.00 0.00 0.00 0.00 0.00 0.00 0.00 0.00 0.00 0.00 0.00 0.00 0.00 0.00 0.00 0.00 0.00
0.00 0.00 0.00 0.00 0.00 0.00 0.00 0.00 0.00 0.00 0.00 0.00 0.00 0.00 0.00 0.00 0.00 0.00 0.00 0.00 0.00 0.00 0.00 0.00 0.00 0.00 0.00 0.00 0.00 0.00 0.00 0.00 0.00 0.00 0.00 0.00 0.00 0.00 0.00 0.00 0.00 0.00 0.01
0.00 0.00 0.00 0.00 0.00 0.00 0.00 0.00 0.00 0.00 0.00 0.00 0.00 0.00 0.00 0.00 0.00 0.00 0.00 0.00 0.00 0.00 0.00 0.00 0.00 0.00 0.00 0.00 0.00 0.00 0.00 0.00 0.00 0.00 0.00 0.00 0.00 0.00 0.00 0.00 0.00 0.01 0.01
0.00 0.00 0.00 0.00 0.00 0.00 0.00 0.00 0.00 0.00 0.00 0.00 0.00 0.00 0.00 0.00 0.00 0.00 0.00 0.00 0.00 0.00 0.00 0.00 0.00 0.00 0.00 0.00 0.00 0.00 0.00 0.00 0.00 0.00 0.00 0.00 0.00 0.00 0.00 0.00 0.00 0.01 0.01
0.00 0.00 0.00 0.00 0.00 0.00 0.00 0.00 0.00 0.00 0.00 0.00 0.00 0.00 0.00 0.00 0.00 0.00 0.00 0.00 0.00 0.00 0.00 0.00 0.00 0.00 0.00 0.00 0.00 0.00 0.00 0.00 0.00 0.00 0.00 0.00 0.00 0.00 0.00 0.00 0.00 0.00 0.01
0.00 0.00 0.00 0.00 0.00 0.00 0.00 0.00 0.00 0.00 0.00 0.00 0.00 0.00 0.00 0.00 0.00 0.00 0.00 0.00 0.00 0.00 0.00 0.00 0.00 0.00 0.00 0.00 0.00 0.00 0.00 0.00 0.00 0.00 0.00 0.00 0.00 0.00 0.00 0.00 0.00 0.01 0.04
0.00 0.00 0.00 0.00 0.00 0.00 0.00 0.00 0.00 0.00 0.00 0.00 0.00 0.00 0.00 0.00 0.00 0.00 0.00 0.00 0.00 0.00 0.00 0.00 0.00 0.00 0.00 0.00 0.00 0.00 0.00 0.00 0.00 0.00 0.00 0.00 0.00 0.00 0.00 0.00 0.00 0.02 0.08
0.01 0.02 0.02 0.03 0.02 0.00 0.00 0.00 0.00 0.00 0.00 0.00 0.00 0.00 0.00 0.00 0.00 0.00 0.00 0.00 0.00 0.00 0.00 0.00 0.00 0.00 0.00 0.00 0.00 0.00 0.00 0.00 0.00 0.00 0.00 0.00 0.00 0.00 0.00 0.00 0.01 0.03 0.10
0.04 0.07 0.06 0.05 0.03 0.02 0.02 0.00 0.00 0.00 0.00 0.00 0.00 0.00 0.00 0.00 0.00 0.00 0.00 0.00 0.00 0.00 0.00 0.00 0.00 0.00 0.00 0.00 0.00 0.00 0.00 0.00 0.00 0.00 0.00 0.00 0.00 0.00 0.00 0.00 0.01 0.04 0.08
0.09 0.08 0.05 0.05 0.04 0.05 0.04 0.01 0.00 0.00 0.00 0.00 0.00 0.00 0.00 0.00 0.00 0.00 0.00 0.00 0.00 0.00 0.00 0.00 0.00 0.00 0.00 0.00 0.00 0.00 0.00 0.00 0.00 0.00 0.00 0.00 0.00 0.00 0.00 0.00 0.01 0.07 0.12
0.06 0.04 0.03 0.02 0.02 0.02 0.01 0.00 0.00 0.00 0.00 0.00 0.00 0.00 0.00 0.00 0.00 0.00 0.00 0.00 0.00 0.00 0.00 0.00 0.00 0.00 0.00 0.00 0.00 0.00 0.00 0.00 0.00 0.00 0.00 0.01 0.00 0.00 0.00 0.00 0.01 0.08 0.10
0.02 0.02 0.02 0.01 0.02 0.01 0.01 0.00 0.00 0.00 0.00 0.00 0.00 0.00 0.00 0.00 0.00 0.00 0.00 0.00 0.00 0.00 0.00 0.00 0.00 0.00 0.00 0.00 0.00 0.00 0.00 0.02 0.02 0.02 0.00 0.03 0.00 0.01 0.02 0.00 0.00 0.06 0.05
MSLP
1022.47 1022.55 1022.73 1022.80 1022.90 1022.99 1023.00 1023.08 1023.12 1023.17 1023.20 1023.33 1023.37 1023.33 1023.36 1023.36 1023.41 1023.58 1023.95 1024.59 1024.41 1024.26 1024.05 1023.87 1023.75 1023.64 1023.46 1023.28 1023.13 1022.98 1022.79 1022.57 1022.35 1022.13 1021.91 1021.66 1021.40 1021.13 1020.86 1020.59 1020.29 1019.97 1019.65
1022.57 1022.72 1022.92 1023.05 1023.16 1023.25 1023.32 1023.36 1023.38 1023.49 1023.56 1023.59 1023.65 1023.71 1023.68 1023.75 1023.81 1023.94 1024.08 1024.66 1024.83 1024.62 1024.43 1024.29 1024.17 1024.03 1023.83 1023.59 1023.39 1023.21 1023.07 1022.89 1022.66 1022.38 1022.07 1021.77 1021.45 1021.12 1020.75 1020.38 1020.04 1019.70 1019.32
1022.62 1022.77 1022.99 1023.13 1023.40 1023.61 1023.61 1023.61 1023.74 1023.76 1023.70 1023.76 1023.79 1023.96 1024.03 1024.09 1024.16 1024.23 1024.33 1024.39 1024.74 1025.08 1025.03 1024.91 1024.79 1024.59 1024.36 1024.12 1023.84 1023.57 1023.33 1023.09 1022.85 1022.64 1022.37 1021.99 1021.63 1021.22 1020.81 1020.41 1020.01 1019.63 1019.20
1022.71 1022.88 1023.05 1023.29 1023.58 1023.67 1023.71 1023.76 1023.76 1023.84 1023.85 1023.86 1023.86 1024.08 1024.10 1024.23 1024.30 1024.39 1024.48 1024.63 1024.83 1024.78 1025.19 1025.40 1025.33 1025.08 1024.81 1024.54 1024.27 1024.04 1023.80 1023.65 1023.40 1023.06 1022.68 1022.28 1021.88 1021.44 1020.96 1020.48 1020.01 1019.55 1019.01
1022.81 1022.87 1023.09 1023.46 1023.67 1023.75 1023.82 1023.92 1024.10 1024.00 1024.00 1024.12 1024.24 1024.36 1024.37 1024.41 1024.60 1024.69 1024.91 1025.07 1025.22 1025.15 1025.09 1025.51 1025.61 1025.60 1025.38 1025.09 1024.82 1024.57 1024.35 1024.05 1023.72 1023.33 1022.89 1022.44 1021.96 1021.52 1021.06 1020.54 1019.97 1019.44 1018.93
1022.92 1023.00 1023.29 1023.58 1023.71 1023.85 1023.97 1024.07 1024.18 1024.42 1024.48 1024.40 1024.46 1024.62 1024.81 1024.93 1024.93 1024.96 1025.16 1025.30 1025.44 1025.41 1025.42 1025.49 1025.40 1025.46 1025.83 1025.63 1025.37 1025.09 1024.74 1024.36 1023.94 1023.42 1022.93 1022.50 1022.00 1021.53 1021.01 1020.44 1019.87 1019.29 1018.69
1022.94 1023.12 1023.33 1023.66 1023.80 1023.85 1024.02 1024.07 1024.32 1024.38 1024.63 1024.73 1024.48 1024.77 1025.01 1025.14 1025.18 1025.27 1025.33 1025.42 1025.54 1025.54 1025.65 1025.64 1025.67 1025.66 1025.62 1025.90 1025.88 1025.63 1025.17 1024.68 1024.17 1023.61 1023.10 1022.65 1022.09 1021.52 1020.88 1020.21 1019.65 1019.15 1018.59
1022.89 1023.07 1023.33 1023.57 1023.79 1023.99 1024.16 1024.29 1024.36 1024.48 1024.82 1024.98 1024.36 1024.27 1024.57 1025.19 1025.28 1025.43 1025.49 1025.58 1025.60 1025.69 1025.83 1026.02 1026.03 1026.05 1026.07 1026.04 1026.13 1025.99 1025.77 1025.24 1024.49 1023.80 1023.21 1022.69 1022.16 1021.54 1020.85 1020.21 1019.60 1018.99 1018.42
1022.97 1023.09 1023.36 1023.59 1023.88 1023.97 1024.20 1024.46 1024.56 1024.49 1024.59 1025.11 1025.07 1024.61 1024.38 1024.03 1024.76 1025.32 1025.53 1025.72 1025.66 1025.68 1025.83 1026.06 1026.25 1026.33 1026.35 1026.23 1026.16 1026.12 1026.15 1025.57 1024.68 1023.89 1023.35 1022.68 1022.06 1021.40 1020.81 1020.16 1019.58 1018.93 1018.26
1022.93 1023.28 1023.60 1023.76 1024.01 1024.17 1024.34 1024.57 1024.67 1024.71 1024.75 1024.85 1025.23 1025.30 1025.13 1024.93 1024.61 1024.79 1025.45 1025.71 1025.90 1025.95 1025.99 1026.10 1026.28 1026.51 1026.65 1026.50 1026.50 1026.45 1026.21 1025.66 1024.83 1024.17 1023.52 1022.72 1021.97 1021.34 1020.81 1020.22 1019.54 1018.82 1017.99
1022.97 1023.33 1023.58 1023.79 1024.09 1024.25 1024.51 1024.68 1024.94 1024.99 1025.10 1025.10 1025.21 1025.43 1025.43 1025.51 1025.50 1025.20 1025.01 1025.39 1025.73 1026.04 1026.08 1026.25 1026.35 1026.49 1026.81 1026.87 1026.73 1026.69 1026.60 1025.86 1025.14 1024.48 1023.66 1022.74 1021.88 1021.35 1020.77 1020.12 1019.31 1018.60 1017.78
1023.04 1023.32 1023.56 1023.73 1024.11 1024.40 1024.67 1024.92 1025.21 1025.34 1025.50 1025.65 1025.73 1025.82 1025.86 1025.90 1026.05 1026.05 1026.01 1026.00 1026.10 1025.98 1026.15 1026.22 1026.48 1026.90 1027.17 1027.19 1027.01 1027.08 1026.58 1025.87 1025.25 1024.43 1023.57 1022.69 1021.93 1021.47 1020.83 1020.08 1019.24 1018.23 1017.38
1022.71 1023.08 1023.39 1023.77 1024.10 1024.53 1024.92 1025.21 1025.47 1025.66 1025.85 1026.05 1026.35 1026.68 1026.88 1027.05 1027.09 1027.14 1027.12 1026.89 1026.76 1026.27 1026.33 1026.37 1026.63 1027.06 1027.30 1027.10 1026.85 1026.92 1026.22 1025.73 1025.17 1024.40 1023.58 1022.82 1022.27 1021.68 1020.90 1020.07 1019.19 1018.14 1017.05
1021.79 1022.50 1023.15 1023.59 1024.20 1024.68 1025.11 1025.43 1025.75 1026.08 1026.39 1026.69 1026.95 1027.16 1027.41 1027.72 1027.81 1027.98 1027.93 1027.85 1027.02 1026.59 1026.51 1026.60 1026.63 1026.97 1027.14 1027.06 1026.83 1026.60 1025.82 1025.42 1025.11 1024.41 1023.74 1023.00 1022.25 1021.50 1020.62 1019.58 1018.50 1017.55 1016.64
1021.25 1022.26 1022.98 1023.41 1024.30 1025.05 1025.17 1025.43 1025.86 1026.35 1026.66 1027.05 1027.35 1027.52 1027.71 1028.16 1028.44 1028.61 1028.68 1028.68 1028.48 1027.72 1026.91 1026.68 1026.99 1026.97 1027.25 1027.01 1026.57 1026.27 1025.65 1025.44 1024.79 1024.11 1023.54 1022.69 1021.99 1021.19 1020.19 1019.15 1018.27 1017.29 1016.19
1021.24 1022.04 1022.77 1023.31 1024.25 1025.22 1025.63 1025.77 1026.40 1026.65 1026.97 1027.33 1027.58 1027.99 1028.14 1028.41 1028.87 1029.12 1029.14 1029.15 1029.26 1029.06 1028.27 1027.49 1027.34 1027.36 1027.24 1026.79 1026.33 1026.01 1025.61 1025.25 1024.44 1023.86 1023.21 1022.48 1021.79 1020.86 1019.80 1018.75 1017.78 1016.75 1015.66
1020.78 1021.65 1022.47 1023.45 1024.26 1025.16 1025.62 1025.79 1026.36 1026.82 1027.26 1027.81 1028.17 1028.30 1029.00 1028.87 1029.12 1029.38 1029.60 1029.60 1029.66 1029.71 1029.02 1028.15 1028.07 1027.64 1027.21 1026.72 1026.35 1026.08 1025.64 1025.07 1024.17 1023.58 1022.96 1022.15 1021.23 1020.22 1019.35 1018.49 1017.42 1016.30 1015.05
1020.38 1021.40 1022.67 1023.48 1024.10 1024.73 1025.03 1025.70 1026.43 1027.09 1027.69 1028.35 1028.86 1028.82 1028.89 1029.18 1029.36 1029.61 1029.77 1029.85 1029.91 1029.84 1029.58 1028.87 1028.37 1027.70 1027.41 1026.99 1026.56 1026.20 1025.62 1024.98 1024.20 1023.36 1022.83 1021.77 1020.92 1020.05 1019.18 1018.28 1017.30 1016.16 1015.00
1020.63 1021.41 1022.25 1023.27 1023.92 1024.57 1025.05 1025.61 1026.21 1027.36 1028.01 1028.56 1028.95 1029.21 1029.53 1029.35 1029.19 1029.74 1029.88 1029.86 1029.87 1029.78 1029.64 1029.37 1028.56 1028.09 1027.50 1026.97 1026.56 1026.03 1025.41 1024.89 1024.16 1023.23 1022.28 1021.39 1020.97 1019.91 1018.86 1018.02 1016.85 1016.05 1014.90
1020.46 1021.39 1022.37 1023.19 1024.17 1024.66 1025.43 1026.16 1026.78 1027.19 1028.03 1028.93 1029.12 1029.30 1029.74 1029.88 1029.65 1030.04 1030.02 1029.88 1029.82 1029.69 1029.57 1029.23 1028.58 1027.97 1027.55 1026.98 1026.63 1025.72 1024.99 1024.58 1023.64 1022.82 1021.94 1021.46 1020.79 1019.84 1018.76 1017.71 1016.99 1016.07 1014.72
1020.75 1021.40 1022.26 1023.26 1024.22 1024.85 1025.87 1026.58 1027.55 1027.55 1027.86 1028.51 1029.14 1029.64 1029.97 1030.32 1030.55 1030.47 1030.14 1029.93 1029.85 1029.74 1029.49 1029.11 1028.56 1027.93 1027.31 1026.83 1026.38 1025.68 1024.82 1023.89 1023.22 1022.36 1021.92 1021.25 1020.44 1019.84 1018.71 1017.77 1017.10 1015.99 1015.00
1021.04 1021.88 1022.87 1023.66 1024.07 1025.38 1025.34 1026.84 1027.55 1028.51 1028.56 1028.76 1028.87 1029.50 1029.96 1030.40 1030.46 1030.71 1030.41 1030.28 1030.23 1029.96 1029.70 1029.30 1028.63 1028.09 1027.51 1027.07 1026.45 1025.66 1024.82 1023.97 1022.38 1022.42 1022.10 1021.21 1020.79 1020.00 1019.04 1018.25 1017.52 1016.13 1014.82
1020.99 1022.09 1022.57 1024.66 1025.09 1025.67 1026.44 1026.60 1027.05 1028.25 1029.36 1029.26 1029.09 1029.39 1029.67 1030.10 1030.65 1030.27 1030.06 1029.99 1029.88 1030.07 1030.03 1029.71 1028.93 1028.34 1027.64 1027.15 1026.71 1025.75 1025.23 1024.73 1023.68 1022.80 1022.09 1021.16 1020.81 1019.94 1019.19 1018.41 1017.90 1016.60 1015.09
1021.47 1021.92 1023.62 1023.50 1025.35 1025.67 1026.97 1026.93 1027.46 1028.49 1029.17 1029.36 1029.54 1029.53 1029.65 1030.16 1030.27 1029.92 1029.72 1029.67 1029.57 1029.56 1029.49 1029.35 1028.91 1028.38 1028.00 1027.56 1026.95 1026.00 1025.09 1024.36 1023.79 1023.00 1022.29 1021.25 1020.59 1020.01 1019.14 1018.61 1018.49 1017.41 1016.32
1021.80 1022.35 1023.64 1023.98 1025.34 1026.18 1026.87 1026.98 1027.69 1028.37 1028.85 1029.28 1029.75 1029.69 1029.81 1029.90 1030.04 1029.91 1029.60 1029.54 1029.45 1029.29 1029.13 1029.07 1028.90 1028.72 1028.25 1027.50 1026.73 1025.96 1025.05 1024.33 1023.42 1022.89 1022.37 1022.25 1021.16 1020.31 1019.22 1018.82 1018.83 1018.16 1017.34
1021.75 1023.03 1023.76 1024.00 1025.56 1026.42 1027.03 1026.68 1027.84 1028.25 1028.57 1029.17 1029.37 1029.84 1030.00 1029.85 1029.85 1029.72 1029.52 1029.49 1029.33 1029.21 1029.06 1028.97 1028.78 1028.20 1027.61 1027.04 1026.71 1026.47 1025.96 1025.24 1024.53 1022.99 1022.39 1022.47 1021.56 1021.09 1019.79 1018.97 1018.72 1018.80 1018.21
Thickness
5662 5663 5662 5662 5662 5661 5661 5660 5660 5660 5659 5658 5658 5658 5657 5657 5656 5654 5651 5648 5647 5646 5645 5645 5644 5642 5640 5639 5638 5636 5634 5632 5630 5628 5626 5625 5623 5621 5620 5618 5617 5616 5615
5662 5661 5661 5660 5660 5659 5659 5659 5658 5657 5656 5656 5655 5654 5654 5653 5651 5650 5648 5643 5642 5641 5639 5638 5636 5634 5633 5632 5630 5628 5626 5624 5622 5620 5618 5617 5615 5614 5612 5611 5609 5608 5607
5661 5660 5659 5659 5657 5656 5656 5656 5655 5654 5654 5653 5653 5651 5650 5649 5647 5645 5644 5642 5639 5636 5633 5631 5628 5626 5624 5622 5621 5620 5618 5616 5614 5612 5610 5608 5606 5605 5603 5601 5599 5598 5597
5658 5658 5657 5656 5655 5654 5654 5654 5653 5652 5652 5652 5651 5649 5647 5645 5643 5641 5639 5637 5635 5633 5628 5624 5621 5620 5618 5616 5614 5612 5610 5608 5605 5604 5602 5600 5597 5595 5594 5592 5590 5589 5588
5655 5655 5655 5653 5652 5652 5651 5651 5649 5650 5650 5648 5646 5644 5643 5641 5638 5636 5634 5631 5628 5625 5623 5619 5615 5612 5609 5607 5605 5603 5601 5598 5596 5595 5593 5590 5588 5586 5584 5582 5581 5579 5578
5652 5653 5651 5650 5649 5648 5648 5647 5646 5644 5643 5644 5642 5640 5637 5635 5633 5631 5628 5625 5622 5620 5617 5614 5611 5607 5601 5598 5596 5593 5591 5589 5587 5585 5582 5579 5576 5574 5571 5569 5567 5566 5565
5650 5649 5649 5646 5646 5646 5645 5644 5643 5642 5639 5638 5639 5635 5632 5630 5628 5625 5622 5619 5617 5614 5610 5607 5603 5599 5595 5590 5586 5583 5581 5579 5577 5575 5572 5568 5565 5562 5560 5558 5556 5553 5550
5646 5646 5645 5644 5642 5641 5640 5639 5639 5638 5635 5633 5636 5637 5631 5626 5623 5619 5616 5613 5610 5607 5603 5598 5594 5589 5585 5581 5576 5572 5568 5566 5564 5562 5560 5556 5553 5550 5548 5545 5542 5540 5537
5641 5642 5640 5639 5638 5637 5636 5634 5634 5635 5633 5628 5627 5631 5629 5632 5622 5615 5611 5606 5603 5600 5595 5590 5584 5579 5574 5569 5564 5559 5553 5551 5551 5549 5545 5543 5540 5537 5533 5530 5527 5525 5524
5637 5636 5635 5634 5632 5632 5632 5630 5629 5628 5628 5625 5621 5620 5619 5618 5619 5614 5606 5600 5595 5590 5585 5579 5573 5567 5561 5555 5549 5544 5541 5538 5537 5535 5531 5530 5527 5524 5519 5515 5513 5511 5511
5632 5630 5630 5629 5627 5627 5625 5624 5623 5622 5620 5619 5617 5613 5611 5608 5606 5606 5605 5597 5588 5581 5575 5568 5561 5555 5548 5541 5538 5532 5528 5527 5525 5522 5519 5517 5514 5509 5505 5502 5500 5499 5498
5627 5626 5625 5624 5622 5620 5619 5617 5615 5613 5611 5609 5607 5605 5603 5601 5596 5593 5589 5585 5577 5573 5565 5558 5550 5543 5537 5532 5527 5521 5517 5515 5513 5510 5505 5502 5499 5493 5489 5487 5486 5486 5485
5625 5623 5621 5619 5617 5614 5612 5609 5607 5605 5602 5600 5596 5591 5588 5584 5581 5578 5575 5574 5568 5568 5559 5552 5544 5535 5528 5523 5517 5511 5508 5504 5498 5495 5491 5487 5482 5478 5475 5473 5471 5470 5471
5627 5622 5618 5615 5611 5608 5605 5602 5599 5595 5592 5588 5584 5580 5576 5572 5568 5564 5561 5558 5563 5561 5553 5543 5535 5525 5517 5511 5506 5501 5499 5493 5486 5481 5476 5473 5468 5465 5462 5461 5460 5458 5455
5624 5617 5614 5611 5605 5601 5599 5595 5591 5586 5582 5578 5574 5570 5567 5561 5556 5551 5546 5541 5538 5542 5543 5536 5524 5516 5507 5501 5497 5491 5486 5480 5474 5468 5463 5460 5454 5451 5449 5447 5444 5439 5436
5617 5611 5607 5605 5599 5593 5590 5587 5580 5576 5572 5568 5563 5559 5556 5550 5543 5538 5533 5529 5523 5519 5519 5519 5510 5502 5495 5491 5486 5480 5474 5467 5462 5455 5451 5446 5441 5438 5436 5433 5427 5421 5414
5612 5608 5602 5597 5592 5586 5581 5578 5573 5567 5562 5556 5551 5549 5541 5538 5533 5527 5521 5515 5509 5502 5501 5500 5491 5486 5483 5480 5473 5466 5460 5454 5450 5443 5439 5435 5431 5428 5422 5415 5408 5399 5390
5608 5601 5594 5589 5585 5580 5575 5570 5563 5557 5551 5544 5538 5536 5533 5527 5521 5514 5508 5502 5496 5490 5485 5483 5477 5475 5468 5464 5459 5453 5446 5440 5436 5432 5425 5421 5415 5410 5403 5392 5382 5371 5360
5600 5595 5590 5583 5578 5572 5567 5561 5557 5546 5539 5533 5527 5523 5517 5514 5511 5502 5496 5491 5484 5477 5471 5466 5464 5459 5454 5450 5446 5440 5435 5428 5421 5417 5414 5407 5396 5390 5383 5371 5361 5348 5343
5593 5587 5580 5575 5567 5562 5555 5549 5542 5537 5528 5520 5515 5511 5503 5497 5495 5487 5483 5478 5472 5465 5459 5453 5451 5447 5441 5437 5431 5430 5427 5416 5415 5407 5402 5389 5380 5370 5362 5351 5342 5335 5336
5580 5577 5571 5564 5555 5549 5541 5536 5526 5524 5520 5511 5504 5496 5489 5483 5477 5473 5470 5465 5459 5453 5447 5442 5439 5436 5431 5426 5421 5418 5415 5414 5406 5396 5390 5373 5369 5355 5344 5331 5324 5325 5329
5567 5561 5554 5548 5546 5533 5534 5521 5515 5506 5503 5499 5495 5486 5479 5471 5466 5459 5455 5450 5444 5439 5433 5429 5425 5421 5416 5411 5407 5404 5400 5397 5403 5386 5372 5360 5344 5330 5321 5315 5312 5319 5327
5557 5548 5545 5529 5525 5520 5513 5511 5506 5494 5484 5484 5482 5476 5468 5460 5452 5449 5444 5438 5432 5424 5417 5411 5409 5404 5401 5397 5394 5392 5382 5373 5368 5363 5357 5344 5327 5312 5306 5303 5303 5312 5322
5542 5540 5524 5527 5511 5509 5496 5496 5491 5481 5471 5469 5465 5461 5456 5448 5442 5438 5433 5427 5421 5413 5405 5399 5393 5389 5385 5380 5376 5375 5371 5365 5350 5336 5328 5322 5310 5296 5297 5294 5293 5302 5310
5527 5524 5514 5510 5500 5494 5485 5484 5479 5471 5465 5458 5451 5447 5442 5437 5431 5426 5422 5415 5409 5402 5395 5387 5380 5375 5370 5366 5364 5362 5358 5351 5345 5326 5315 5294 5290 5284 5288 5288 5288 5294 5301
5515 5505 5499 5498 5485 5478 5472 5474 5464 5458 5455 5446 5441 5433 5428 5424 5419 5415 5411 5404 5398 5391 5384 5376 5371 5366 5362 5357 5349 5340 5334 5326 5315 5313 5299 5282 5276 5274 5282 5286 5287 5289 5293